Stations météo

Publicité
Besancon, France (7288): Température de l'air & dewpoint: 20.06.2017 07:00:00 - 26.06.2017 07:00:00 (CEST)Besancon, France (7288): Température de l'air 5cm: 20.06.2017 07:00:00 - 26.06.2017 07:00:00 (CEST)Besancon, France (7288): Température de l'air -20cm & Température de l'air -100cm: 20.06.2017 07:00:00 - 26.06.2017 07:00:00 (CEST)Besancon, France (7288): Vitesse du vent & gusts: 20.06.2017 07:00:00 - 26.06.2017 07:00:00 (CEST)Besancon, France (7288): Direction du vent: 20.06.2017 07:00:00 - 26.06.2017 07:00:00 (CEST)Besancon, France (7288): reduced air pressure: 20.06.2017 07:00:00 - 26.06.2017 07:00:00 (CEST)Besancon, France (7288): visibility: 20.06.2017 07:00:00 - 26.06.2017 07:00:00 (CEST)Besancon, France (7288): Ensoleillement: 20.06.2017 07:00:00 - 26.06.2017 07:00:00 (CEST)Besancon, France (7288): Quantités de précipitations: 20.06.2017 07:00:00 - 26.06.2017 07:00:00 (CEST)
Date & Time tt [°C] td [°C] tt 5cm [°C] tt -20cm [°C] tt -100cm [°C] ff [km/h] ff [knt] fx [km/h] fx [knt] dd ppp [hPa] vv [km] sd [min] rr [mm]
26.06.2017 07:00:00 14,3 12,0 10,3 23,7 19,4 0 0 3 2 N 1014,6 25 25 0,0
26.06.2017 06:00:00 13,9 11,4 9,6 23,9 19,4 2 1 5 3 N 1015,0 25 0 0,0
26.06.2017 05:00:00 14,5 12,0 10,0 24,1 19,4 2 1 4 2 NNE 1015,3 - 0 0,0
26.06.2017 04:00:00 14,6 11,9 10,5 24,2 19,4 2 1 5 3 NNE 1016,0 - 0 0,0
26.06.2017 03:00:00 15,2 12,0 10,7 24,3 19,3 2 1 5 3 NNE 1016,4 - 0 0,0
26.06.2017 02:00:00 16,0 12,0 11,6 24,5 19,4 0 0 5 3 N 1016,6 - 0 0,0
26.06.2017 01:00:00 16,5 12,1 11,9 24,7 19,4 0 0 5 3 N 1016,8 - 0 0,0
26.06.2017 00:00:00 18,2 12,2 13,1 24,8 19,4 0 0 3 2 N 1016,8 - 0 0,0
25.06.2017 23:00:00 20,1 11,8 15,5 24,8 19,4 2 1 9 5 N 1016,3 - 0 0,0
25.06.2017 22:00:00 21,5 11,8 18,1 24,8 19,3 4 2 10 5 NW 1015,9 - 4 0,0
25.06.2017 21:00:00 23,5 12,5 23,0 24,8 19,3 9 5 17 9 NNW 1015,3 - 39 0,0
25.06.2017 20:00:00 25,4 11,9 25,7 24,8 19,3 7 4 21 11 WNW 1014,9 - 44 0,0
25.06.2017 19:00:00 24,8 11,0 25,7 24,7 19,4 6 3 23 12 WSW 1015,1 - 14 0,0
25.06.2017 18:00:00 25,4 11,2 27,8 24,5 19,3 10 5 22 12 SW 1015,2 - 16 0,0
25.06.2017 17:00:00 26,0 10,2 28,9 24,4 19,3 8 4 24 13 SW 1015,5 20 41 0,0
25.06.2017 16:00:00 25,2 10,3 28,2 24,2 19,3 8 4 25 13 SW 1016,0 20 23 0,0
25.06.2017 15:00:00 24,7 9,8 29,2 24,1 19,3 12 7 35 19 SW 1016,4 20 30 0,0
25.06.2017 14:00:00 24,4 10,3 30,4 23,9 19,3 15 8 36 19 WSW 1016,6 20 53 0,0
25.06.2017 13:00:00 24,1 12,1 27,2 23,8 19,3 13 7 32 18 SW 1016,7 20 47 0,0
25.06.2017 12:00:00 22,9 11,9 24,3 23,8 19,3 12 7 24 13 SSW 1017,2 20 43 0,0
25.06.2017 11:00:00 22,4 11,5 30,3 23,8 19,3 11 6 21 12 SW 1017,5 20 60 0,0
25.06.2017 10:00:00 21,2 11,8 22,1 23,9 19,3 7 4 20 11 WSW 1017,7 20 32 0,0
25.06.2017 09:00:00 19,5 12,0 19,9 24,0 19,3 4 2 15 8 W 1017,8 15 0 0,0
25.06.2017 08:00:00 19,1 12,6 19,0 24,1 19,3 4 2 13 7 WSW 1017,2 15 0 0,0
25.06.2017 07:00:00 19,1 13,1 18,2 24,2 19,3 6 3 13 7 SW 1016,5 15 0 0,0
25.06.2017 06:00:00 19,1 12,6 17,9 24,3 19,3 0 0 5 3 N 1016,9 15 0 0,0
25.06.2017 05:00:00 19,5 12,5 18,2 24,4 19,2 0 0 4 2 N 1016,9 - 0 0,0
25.06.2017 04:00:00 19,3 12,3 18,1 24,5 19,3 0 0 0 0 N 1016,9 - 0 0,0
25.06.2017 03:00:00 19,7 12,0 16,7 24,6 19,2 0 0 6 3 N 1017,4 - 0 0,0
25.06.2017 02:00:00 19,5 12,3 17,3 24,8 19,3 0 0 7 4 N 1017,6 - 0 0,0
25.06.2017 01:00:00 20,0 12,0 16,5 24,9 19,2 3 2 11 6 SSW 1017,6 - 0 0,0
25.06.2017 00:00:00 20,5 12,7 16,5 25,0 19,2 4 2 9 5 S 1016,8 - 0 0,0
24.06.2017 23:00:00 21,7 13,1 19,1 25,1 19,2 5 3 14 8 SW 1016,5 - 0 0,0
24.06.2017 22:00:00 23,1 13,6 21,3 25,1 19,2 7 4 16 9 SW 1015,9 - 0 0,0
24.06.2017 21:00:00 24,0 13,2 22,1 25,1 19,2 3 1 15 8 S 1015,6 - 0 0,0
24.06.2017 20:00:00 25,1 13,0 24,8 25,0 19,2 6 3 22 12 SW 1015,5 - 31 0,0
24.06.2017 19:00:00 27,0 13,7 28,3 24,9 19,2 9 5 31 17 SW 1015,4 - 50 0,0
24.06.2017 18:00:00 27,3 14,7 31,0 24,8 19,1 10 5 41 22 SSW 1015,7 - 57 0,0
24.06.2017 17:00:00 26,7 14,1 28,9 24,6 19,2 8 4 27 14 SW 1016,0 15 46 0,0
24.06.2017 16:00:00 26,6 15,0 31,8 24,5 19,2 11 6 24 13 WSW 1016,5 15 47 0,0
24.06.2017 15:00:00 25,4 15,1 29,8 24,4 19,2 6 4 18 10 SW 1017,4 15 26 0,0
24.06.2017 14:00:00 24,3 14,7 29,2 24,3 19,1 5 3 18 10 WSW 1018,3 15 16 0,0
24.06.2017 13:00:00 24,0 15,5 29,5 24,3 19,1 6 3 17 9 WSW 1018,7 15 29 0,0
24.06.2017 12:00:00 22,4 16,4 24,2 24,4 19,1 6 3 13 7 WSW 1019,3 15 0 0,0
24.06.2017 11:00:00 21,2 15,5 22,5 24,4 19,1 8 4 13 7 SW 1020,0 12 0 0,0
24.06.2017 10:00:00 20,3 14,6 20,7 24,5 19,1 3 1 8 4 W 1020,2 12 0 0,0
24.06.2017 09:00:00 19,7 14,9 18,9 24,6 19,1 4 2 9 5 WSW 1020,5 12 0 0,0
24.06.2017 08:00:00 20,0 15,2 20,0 24,7 19,1 3 2 9 5 WSW 1020,1 12 0 0,0
24.06.2017 07:00:00 20,3 15,3 19,8 24,8 19,1 4 2 10 5 W 1019,7 12 0 0,0
24.06.2017 06:00:00 20,3 15,5 18,8 24,9 19,0 0 0 5 3 N 1019,5 12 0 0,0
24.06.2017 05:00:00 20,4 15,4 19,3 25,0 19,0 3 2 8 5 WSW 1019,5 - 0 0,0
24.06.2017 04:00:00 21,3 15,2 20,5 25,1 19,0 4 2 11 6 WSW 1019,5 - 0 0,0
24.06.2017 03:00:00 21,3 14,9 20,4 25,2 19,0 3 2 9 5 SW 1019,8 - 0 0,0
24.06.2017 02:00:00 21,5 14,9 20,9 25,3 19,0 3 2 8 5 SW 1020,1 - 0 0,0
24.06.2017 01:00:00 21,9 14,8 19,8 25,5 19,0 3 2 10 5 SW 1020,2 - 0 0,0
24.06.2017 00:00:00 22,1 14,7 19,9 25,5 19,0 3 1 16 8 W 1019,9 - 0 0,0
23.06.2017 23:00:00 23,1 14,9 21,2 25,6 19,0 7 4 21 11 NW 1019,5 - 0 0,0
23.06.2017 22:00:00 24,7 15,1 23,0 25,6 19,0 7 4 16 9 WNW 1018,9 - 0 0,0
23.06.2017 21:00:00 26,7 15,1 25,7 25,6 19,0 7 4 19 11 WNW 1017,9 - 0 0,0
23.06.2017 20:00:00 27,6 16,2 28,1 25,5 19,0 10 5 21 12 NW 1017,0 - 23 0,0
23.06.2017 19:00:00 28,4 18,2 29,4 25,4 19,0 5 3 15 8 NNW 1016,5 - 5 0,0
23.06.2017 18:00:00 29,9 18,3 31,8 25,3 19,0 9 5 19 10 W 1016,4 - 38 0,0
23.06.2017 17:00:00 29,0 17,8 31,6 25,1 18,9 6 3 18 10 WSW 1016,8 25 25 0,0
23.06.2017 16:00:00 29,7 18,5 33,0 25,0 18,9 6 3 20 11 WNW 1017,0 25 25 0,0
23.06.2017 15:00:00 28,9 17,4 33,6 24,8 18,9 7 4 21 11 WNW 1017,5 25 20 0,0
23.06.2017 14:00:00 28,3 17,5 33,6 24,6 18,9 10 6 21 12 NW 1017,6 25 43 0,0
23.06.2017 13:00:00 28,1 17,6 37,3 24,5 18,9 10 5 20 11 WNW 1017,8 - 60 0,0
23.06.2017 12:00:00 27,3 18,0 35,9 24,4 18,9 8 4 21 11 WNW 1017,6 25 60 0,0
23.06.2017 11:00:00 26,7 18,0 32,6 24,4 18,9 8 4 20 11 W 1017,8 25 60 0,0
23.06.2017 10:00:00 25,8 18,7 29,1 24,5 18,9 9 5 21 12 W 1017,8 25 60 0,0
23.06.2017 09:00:00 25,0 17,7 24,3 24,6 18,9 12 7 26 14 SW 1017,4 25 60 0,0
23.06.2017 08:00:00 23,7 19,0 22,6 24,7 18,9 8 4 26 14 SW 1016,9 25 37 0,0
23.06.2017 07:00:00 22,6 17,7 17,3 24,8 18,9 8 4 16 9 SSW 1016,5 25 19 0,0
23.06.2017 06:00:00 20,5 16,1 15,8 25,0 18,8 0 0 6 4 N 1016,3 25 0 0,0
23.06.2017 05:00:00 20,0 15,4 16,0 25,1 18,8 0 0 5 3 N 1016,0 - 0 0,0
23.06.2017 04:00:00 20,8 15,8 16,6 25,2 18,8 0 0 5 3 N 1015,8 - 0 0,0
23.06.2017 03:00:00 22,1 15,2 17,2 25,4 18,8 0 0 5 3 N 1015,7 - 0 0,0
23.06.2017 02:00:00 24,6 15,0 18,7 25,5 18,8 2 1 11 6 SW 1015,4 - 0 0,0
23.06.2017 01:00:00 23,4 16,7 18,7 25,6 18,8 0 0 4 2 N 1015,3 - 0 0,0
23.06.2017 00:00:00 24,8 16,8 19,1 25,6 18,8 0 0 5 3 N 1015,2 - 0 0,0
22.06.2017 23:00:00 26,8 17,8 22,1 25,7 18,8 2 1 13 7 SSW 1014,6 - 0 0,0
22.06.2017 22:00:00 29,0 18,1 26,7 25,7 18,8 7 4 17 9 SSW 1013,9 - 0 0,0
22.06.2017 21:00:00 30,7 18,1 29,3 25,7 18,8 11 6 23 12 SSW 1012,9 - 0 0,0
22.06.2017 20:00:00 31,8 18,4 31,2 25,6 18,8 8 4 29 16 SW 1012,7 - 35 0,0
22.06.2017 19:00:00 33,1 18,5 35,3 25,4 18,8 10 5 30 16 SW 1012,4 - 60 0,0
22.06.2017 18:00:00 33,3 17,9 36,9 25,2 18,7 14 8 32 18 SSW 1012,4 - 60 0,0
22.06.2017 17:00:00 33,5 17,6 38,3 25,0 18,7 14 7 30 16 SW 1012,7 30 60 0,0
22.06.2017 16:00:00 33,3 17,1 37,3 24,7 18,7 11 6 31 17 SW 1013,1 - 60 0,0
22.06.2017 15:00:00 33,0 17,6 38,9 24,5 18,7 12 7 31 17 SW 1013,5 30 60 0,0
22.06.2017 14:00:00 32,7 16,5 39,9 24,3 18,7 12 6 27 15 WSW 1014,1 30 60 0,0
22.06.2017 13:00:00 31,5 17,4 39,5 - - - - - - - 1014,5 30 60 0,0
22.06.2017 12:00:00 30,3 17,4 38,2 24,0 18,7 8 4 18 10 WSW 1015,0 30 60 0,0
22.06.2017 11:00:00 29,1 17,6 35,1 23,9 18,6 8 4 18 10 WSW 1015,3 - 60 0,0
22.06.2017 10:00:00 27,6 15,9 33,3 24,0 18,7 7 4 15 8 SW 1015,6 25 60 0,0
22.06.2017 09:00:00 26,6 15,3 21,9 24,1 18,6 0 0 4 2 N 1015,3 20 60 0,0
22.06.2017 08:00:00 21,8 14,9 18,5 24,3 18,6 0 0 3 2 N 1015,9 - 60 0,0
22.06.2017 07:00:00 19,6 15,0 15,9 24,4 18,7 0 0 5 3 N 1015,9 15 24 0,0
22.06.2017 06:00:00 19,1 14,8 15,3 24,6 18,6 3 2 7 4 NNE 1015,8 10 0 0,0
22.06.2017 05:00:00 19,2 15,1 15,4 24,7 18,6 2 1 5 3 NNE 1015,6 - 0 0,0
22.06.2017 04:00:00 19,7 15,1 15,9 24,8 18,6 4 2 5 3 NNE 1015,6 - 0 0,0
22.06.2017 03:00:00 20,2 15,6 16,1 25,0 18,6 2 1 5 3 NNE 1015,6 - 0 0,0
22.06.2017 02:00:00 20,7 15,9 16,3 25,1 18,6 3 2 7 4 NNE 1015,7 - 0 0,0
22.06.2017 01:00:00 21,5 16,0 17,2 25,2 18,6 2 1 5 3 NNE 1015,8 - 0 0,0
22.06.2017 00:00:00 22,1 16,1 17,6 25,3 18,6 4 2 6 3 NNE 1015,8 - 0 0,0
21.06.2017 23:00:00 23,8 16,3 18,6 25,3 18,6 0 0 4 2 N 1015,6 - 0 0,0
21.06.2017 22:00:00 25,4 16,3 19,8 25,3 18,6 3 1 6 3 NNE 1014,7 - 0 0,0
21.06.2017 21:00:00 27,9 14,9 23,6 25,2 18,6 0 0 5 3 N 1013,9 - 0 0,0
21.06.2017 20:00:00 30,5 14,6 28,6 25,1 18,5 3 2 13 7 NNE 1013,2 - 40 0,0
21.06.2017 19:00:00 32,4 16,7 37,2 25,0 18,5 4 2 15 8 N 1012,6 - 60 0,0
21.06.2017 18:00:00 32,7 15,2 38,4 24,8 18,6 5 3 14 8 NNW 1012,7 - 60 0,0
21.06.2017 17:00:00 32,6 14,2 37,6 24,6 18,6 8 4 20 11 NW 1012,9 25 60 0,0
21.06.2017 16:00:00 32,6 14,2 40,6 24,3 18,5 6 4 19 11 NW 1013,3 25 60 0,0
21.06.2017 15:00:00 32,2 14,3 41,1 24,0 18,5 5 3 21 11 WNW 1013,7 - 60 0,0
21.06.2017 14:00:00 31,2 16,4 41,6 23,8 18,5 5 3 15 8 NW 1014,3 20 60 0,0
21.06.2017 13:00:00 30,5 17,6 40,3 23,6 18,5 5 3 14 7 WNW 1014,8 20 60 0,0
21.06.2017 12:00:00 29,2 18,0 37,9 23,5 18,5 5 3 12 7 WNW 1015,0 20 60 0,0
21.06.2017 11:00:00 28,0 17,8 34,4 23,5 18,5 6 4 14 8 WSW 1015,3 20 60 0,0
21.06.2017 10:00:00 26,7 16,3 25,7 23,5 18,5 6 3 13 7 SW 1015,4 15 60 0,0
21.06.2017 09:00:00 24,5 19,3 21,4 23,6 18,4 0 0 4 2 N 1015,5 15 60 0,0
21.06.2017 08:00:00 21,1 20,3 19,2 23,7 18,4 0 0 3 2 N 1015,7 15 48 0,0
21.06.2017 07:00:00 19,3 18,5 16,8 23,8 18,4 0 0 4 2 N 1015,9 12 21 0,0
21.06.2017 06:00:00 19,2 18,4 16,7 24,0 18,4 0 0 5 3 N 1015,8 12 0 0,2
21.06.2017 05:00:00 19,4 18,4 17,3 24,1 18,4 3 2 8 4 NNE 1015,4 - 0 0,0
21.06.2017 04:00:00 19,5 18,5 17,2 24,2 18,4 2 1 5 3 N 1015,2 - 0 0,0
21.06.2017 03:00:00 20,1 18,9 18,4 24,3 18,4 0 0 6 3 N 1015,3 - 0 0,0
21.06.2017 02:00:00 20,4 18,5 19,6 24,4 18,4 4 2 32 17 NNE 1015,8 - 0 8,6
21.06.2017 01:00:00 21,3 18,5 19,9 24,5 18,4 3 2 28 15 NE 1016,5 - 0 0,8
21.06.2017 00:00:00 24,2 17,2 19,6 24,6 18,4 3 2 14 7 NNE 1015,7 - 0 0,0
20.06.2017 23:00:00 24,1 17,1 19,3 24,6 18,4 2 1 4 2 N 1015,4 - 0 0,0
20.06.2017 22:00:00 25,7 17,4 21,8 24,6 18,4 0 0 5 3 N 1015,1 - 0 0,0
20.06.2017 21:00:00 27,5 15,8 25,0 24,5 18,4 0 0 5 3 N 1014,5 - 0 0,0
20.06.2017 20:00:00 28,8 16,0 26,6 24,4 18,4 0 0 8 4 N 1014,4 - 0 0,0
20.06.2017 19:00:00 31,5 15,0 31,7 24,2 18,4 5 3 11 6 WSW 1014,0 - 35 0,0
20.06.2017 18:00:00 31,0 14,2 32,5 24,0 18,4 6 4 14 8 WSW 1014,4 - 37 0,0
20.06.2017 17:00:00 32,4 14,5 39,8 23,8 18,4 6 4 18 10 SW 1014,4 25 60 0,0
20.06.2017 16:00:00 32,2 15,2 40,4 23,5 18,4 5 3 17 9 S 1014,7 25 60 0,0
20.06.2017 15:00:00 31,2 15,6 39,7 23,3 18,4 8 4 20 11 SW 1015,5 25 60 0,0
20.06.2017 14:00:00 30,3 15,2 38,5 23,1 18,3 9 5 26 14 WSW 1015,9 25 60 0,0
20.06.2017 13:00:00 29,5 14,5 36,8 22,9 18,3 10 6 26 14 SW 1016,3 25 60 0,0
20.06.2017 12:00:00 28,9 13,9 34,3 22,9 18,3 10 5 29 15 WSW 1016,9 25 60 0,0
20.06.2017 11:00:00 27,1 12,7 29,0 22,9 18,3 13 7 32 17 SSW 1016,9 20 50 0,0
20.06.2017 10:00:00 26,3 12,4 28,4 22,9 18,3 11 6 27 15 SW 1017,0 20 58 0,0
20.06.2017 09:00:00 24,6 13,5 22,4 23,0 18,3 7 4 22 12 SW 1017,1 - 46 0,0
20.06.2017 08:00:00 21,9 13,8 17,3 23,1 18,3 0 0 3 2 N 1017,2 20 60 0,0
20.06.2017 07:00:00 18,6 13,5 14,0 23,3 18,3 0 0 4 2 N 1017,5 20 24 0,0

tt = Température de l'air
td = dewpoint
tt 5cm = Température de l'air 5cm
tt -20cm = Température de l'air -20cm
tt -100cm = Température de l'air -100cm
ff = Vitesse du vent
fx = gusts
dd = Direction du vent
ppp = reduced air pressure
vv = visibility
sd = Ensoleillement
rr = Quantités de précipitations

stations d'obs. à proximité